Location: Brahman Valley
(40.6513°N, 111.8855°W)
Time: 07:58:33
(UTC+00:00)

Tiros 1 despin weight - Pass Details

Date: 14 May 2021
Orbit: 594 x 641 km, 48.2° (Epoch: 22 June)

Event Time Altitude Azimuth Distance (km) Brightness Sun altitude
Rises 03:06:04 0° 231° (SW) 2,905 ? -5.8°
Reaches altitude 10° 03:08:23 10° 228° (SW) 2,007 ? -6.2°
Maximum altitude 03:12:59 68° 146° (SSE) 686 ? -6.9°
Drops below altitude 10° 03:17:38 10° 64° (ENE) 2,031 ? -7.7°
Sets 03:19:59 0° 62° (ENE) 2,944 ? -8.1°
